Location: Newark
(12.4436°N, 0.6167°W)
Time: 21:16:10
(UTC+00:00)

deb Explorer IX - Pass Details

Date: 14 December 2019
Orbit: 548 x 1101 km, 38.8° (Epoch: 28 January)

Event Time Altitude Azimuth Distance (km) Brightness Sun altitude
Rises 00:11:17 0° 278° (W) 3,906 - -78.7°
Reaches altitude 10° 00:15:24 10° 258° (WSW) 2,937 - -78.4°
Maximum altitude 00:19:20 15° 224° (SW) 2,518 - -78.0°
Drops below altitude 10° 00:23:09 10° 191° (S) 2,834 - -77.6°
Sets 00:27:03 0° 169° (S) 3,695 - -77.1°
